EW1145 Weather Reports


Display with metric or nautical units.
time (UTC)temp
F
wind
direction
speed
MPH
gust
MPH
rain 1hr
in
rain 24hr
in
rain mn
in
humidity
%
barometer
mb
20260504190042 62 169 0.0 4.0 0.00 0.00 0.00 74 1012.6
20260504184541 61 189 2.0 5.0 0.00 0.00 0.00 75 1012.8
20260504183041 62 123 0.0 6.0 0.00 0.00 0.00 76 1012.8
20260504181539 61 208 2.0 7.0 0.00 0.00 0.00 75 1012.7
20260504180040 61 194 0.0 5.0 0.00 0.00 0.00 75 1012.8
20260504174539 62 246 1.0 6.0 0.00 0.00 0.00 74 1012.9
20260504173040 62 97 0.0 4.0 0.00 0.00 0.00 75 1012.8
20260504171538 60 202 3.0 7.0 0.00 0.00 0.00 77 1012.7
20260504081519 72 297 0.0 1.0 0.00 0.00 0.00 49 1007.5
20260504050007 75 24 0.0 0.0 0.00 0.00 0.00 41 1007.2
20260504044512 75 24 0.0 0.0 0.00 0.00 0.00 40 1007.0
20260504043011 76 24 0.0 0.0 0.00 0.00 0.00 40 1007.0
20260504041518 78 24 0.0 0.0 0.00 0.00 0.00 38 1006.8
20260504040005 78 24 0.0 0.0 0.00 0.00 0.00 37 1006.7
20260504034505 78 24 0.0 0.0 0.00 0.00 0.00 37 1006.6
20260504033004 78 24 0.0 0.0 0.00 0.00 0.00 36 1006.3
20260504031504 80 24 0.0 0.0 0.00 0.00 0.00 38 1006.2
20260504030004 82 24 0.0 0.0 0.00 0.00 0.00 36 1006.0
20260504024504 87 24 0.0 0.0 0.00 0.00 0.00 31 1005.9
20260504023004 89 24 0.0 0.0 0.00 0.00 0.00 29 1005.9
20260504021503 90 24 0.0 0.0 0.00 0.00 0.00 27 1005.8
20260504020005 90 24 0.0 0.0 0.00 0.00 0.00 21 1005.9
20260504014603 90 24 0.0 2.0 0.00 0.00 0.00 21 1005.9
20260504013126 90 24 0.0 2.0 0.00 0.00 0.00 21 1006.0
20260504011558 91 24 0.0 3.0 0.00 0.00 0.00 21 1006.1
20260504010100 90 86 0.0 1.0 0.00 0.00 0.00 21 1006.2
20260504004555 91 86 0.0 3.0 0.00 0.00 0.00 20 1006.4
20260504003053 91 86 0.0 3.0 0.00 0.00 0.00 20 1006.5
20260504001553 91 338 0.0 3.0 0.00 0.00 0.00 20 1006.5
20260504000050 90 331 0.0 4.0 0.00 0.00 0.00 21 1006.7
20260503234549 90 44 0.0 4.0 0.00 0.00 0.00 22 1006.8
20260503233047 91 103 0.0 0.0 0.00 0.00 0.00 22 1007.0
20260503231545 91 201 0.0 4.0 0.00 0.00 0.00 21 1007.2
20260503230044 90 313 0.0 2.0 0.00 0.00 0.00 21 1007.4
20260503224540 90 84 0.0 3.0 0.00 0.00 0.00 20 1007.6
20260503223036 89 190 0.0 3.0 0.00 0.00 0.00 25 1007.9
20260503221534 89 83 0.0 5.0 0.00 0.00 0.00 26 1008.1
20260503220032 89 109 0.0 3.0 0.00 0.00 0.00 25 1008.4
20260503214538 88 75 0.0 5.0 0.00 0.00 0.00 25 1008.5
20260503213026 88 21 0.0 3.0 0.00 0.00 0.00 27 1008.7
20260503211522 87 28 0.0 4.0 0.00 0.00 0.00 28 1008.8
20260503210021 87 115 0.0 5.0 0.00 0.00 0.00 29 1009.0
20260503204518 86 32 1.0 4.0 0.00 0.00 0.00 30 1009.1
20260503203017 86 9 0.0 5.0 0.00 0.00 0.00 29 1009.4
20260503201513 85 111 0.0 6.0 0.00 0.00 0.00 29 1009.6
20260503200013 85 86 0.0 7.0 0.00 0.00 0.00 32 1009.8
20260503194509 83 80 0.0 6.0 0.00 0.00 0.00 34 1010.0
20260503193005 83 10 1.0 5.0 0.00 0.00 0.00 36 1010.1
20260503191501 82 105 0.0 4.0 0.00 0.00 0.00 40 1010.2